シェパード-トルヒーヨ彗星

C/2014 F3 ( Sheppard-Trujillo )

English version
Home page
Updated on June 2, 2017

---------------------------------------------------------------------

・ プロフィール

発見日 2014年3月26日
発見光度 23.0等
発見者 Scott S. Sheppard and Chadwick A. Trujillo (Cerro Tololo)

・ 軌道要素

Epoch 2021 May 26.0 TT = JDT 2459360.5
T 2021 May 19.50501 TT                                  MPCW
q   5.6894742            (2000.0)            P               Q
n   0.01620542     Peri.    3.57238     +0.86855136     +0.49157591
a  15.4654498      Node   326.74454     -0.45750429     +0.74638922
e   0.6321171      Incl.    6.59923     -0.19054752     +0.44861593
P  60.8
From 15 observations 2014 Mar. 26-2015 Apr. 19, mean residual 0".5.

・ 星図

・ 光度変化

        m1 = 6.0 + 5 logΔ + 10.0 log r

---------------------------------------------------------------------

軌道要素はM.P.E.C. 2015-J41に掲載されたものです。
星図はステラナビゲータ Ver.8 (アストロアーツ) で作成したものです。
光度グラフはComet for Windowsで作成したものです。

---------------------------------------------------------------------

Copyright(C) Seiichi Yoshida (comet@aerith.net). All rights reserved.